KC1DMA Weather Reports


time (UTC)temp
F
wind
direction
speed
knots
gust
knots
rain 1hr
in
rain 24hr
in
rain mn
in
humidity
%
barometer
mb
20260504194623 68 151 4.3 13.0 0.00 0.00 0.00 40 1011.0
20260504194119 69 190 6.1 8.7 0.00 0.00 0.00 39 1011.0
20260504193615 68 186 3.5 8.7 0.00 0.00 0.00 41 1011.0
20260504193114 67 151 8.7 11.3 0.00 0.00 0.00 39 1010.9
20260504192612 67 45 2.6 11.3 0.00 0.00 0.00 40 1011.2
20260504192109 67 161 2.6 11.3 0.00 0.00 0.00 40 1011.2
20260504191608 68 78 5.2 6.1 0.00 0.00 0.00 39 1011.2
20260504191103 68 243 3.5 8.7 0.00 0.00 0.00 38 1011.2
20260504190600 68 180 3.5 11.3 0.00 0.00 0.00 39 1011.0
20260504190056 68 183 5.2 10.4 0.00 0.00 0.00 38 1011.3
20260504185553 68 134 6.1 7.8 0.00 0.00 0.00 38 1011.2
20260504185050 68 224 0.9 7.8 0.00 0.00 0.00 37 1011.2
20260504184545 68 175 1.7 9.6 0.00 0.00 0.00 37 1011.2
20260504184040 68 216 1.7 12.2 0.00 0.00 0.00 37 1011.4
20260504183538 70 157 5.2 7.0 0.00 0.00 0.00 37 1011.3
20260504183036 69 44 1.7 5.2 0.00 0.00 0.00 38 1011.4
20260504182532 69 171 1.7 8.7 0.00 0.00 0.00 37 1011.4
20260504182030 68 165 2.6 6.1 0.00 0.00 0.00 38 1011.6
20260504181527 68 213 4.3 5.2 0.00 0.00 0.00 39 1011.4
20260504181025 68 111 5.2 8.7 0.00 0.00 0.00 36 1011.7
20260504180524 68 261 1.7 7.8 0.00 0.00 0.00 39 1011.7
20260504180022 69 61 1.7 9.6 0.00 0.00 0.00 36 1012.1
20260504175519 68 196 7.0 10.4 0.00 0.00 0.00 37 1011.9
20260504175016 68 142 0.9 5.2 0.00 0.00 0.00 37 1011.7
20260504174514 68 220 3.5 5.2 0.00 0.00 0.00 34 1011.8
20260504174011 68 63 0.9 3.5 0.00 0.00 0.00 35 1011.9
20260504173507 68 183 2.6 4.3 0.00 0.00 0.00 38 1012.2
20260504173005 67 205 3.5 6.1 0.00 0.00 0.00 36 1012.0
20260504172500 68 263 6.1 7.8 0.00 0.00 0.00 36 1012.1
20260504171957 66 291 7.0 15.6 0.00 0.00 0.00 35 1012.0
20260504171454 66 97 4.3 5.2 0.00 0.00 0.00 36 1012.0
20260504170951 66 272 8.7 11.3 0.00 0.00 0.00 34 1012.1
20260504170447 66 307 7.8 10.4 0.00 0.00 0.00 36 1012.1
20260504160407 66 205 2.6 6.1 0.00 0.00 0.00 35 1012.6
20260504150831 63 275 4.3 8.7 0.00 0.00 0.00 36 1013.2
20260504150328 63 275 4.3 8.7 0.00 0.00 0.00 36 1013.3
20260504141258 62 317 6.1 7.0 0.00 0.00 0.00 39 1013.9
20260504140754 62 144 1.7 6.1 0.00 0.00 0.00 37 1013.9
20260504140250 61 284 8.7 11.3 0.00 0.00 0.00 38 1014.1
20260504130719 58 142 1.7 4.3 0.00 0.00 0.00 47 1014.4
20260504130214 57 169 2.6 6.1 0.00 0.00 0.00 46 1014.5
20260504120139 53 228 0.0 1.7 0.00 0.00 0.00 51 1015.0
20260504110606 48 137 4.3 5.2 0.00 0.00 0.00 57 1014.8
20260504100533 46 137 3.5 6.1 0.00 0.00 0.00 58 1014.2
20260504081927 47 158 1.7 1.7 0.00 0.00 0.00 52 1013.7
20260504081424 47 158 1.7 1.7 0.00 0.00 0.00 52 1013.8
20260504080920 47 158 1.7 1.7 0.00 0.00 0.00 52 1014.0
20260504080417 47 158 1.7 1.7 0.00 0.00 0.00 52 1013.8
20260504070344 0 0.0 0.0 0.00 0.00 0.00 1013.8
20260504050732 0 0.0 0.0 0.00 0.00 0.00 1013.6
20260504050229 0 0.0 0.0 0.00 0.00 0.00 1013.5
20260504045726 0 0.0 0.0 0.00 0.00 0.00 1013.6
20260504045221 0 0.0 0.0 0.00 0.00 0.00 1013.7
20260504044719 0 0.0 0.0 0.00 0.00 0.00 1013.8
20260504044217 0 0.0 0.0 0.00 0.00 0.00 1013.9
20260504043713 0 0.0 0.0 0.00 0.00 0.00 1013.7
20260504043210 0 0.0 0.0 0.00 0.00 0.00 1013.6
20260504042708 0 0.0 0.0 0.00 0.00 0.00 1013.5
20260504042204 0 0.0 0.0 0.00 0.00 0.00 1013.6
20260504041700 0 0.0 0.0 0.00 0.00 0.00 1013.6
20260504041155 0 0.0 0.0 0.00 0.00 0.00 1013.5
20260504040653 0 0.0 0.0 0.00 0.00 0.00 1013.7
20260504040150 0 0.0 0.0 0.00 0.00 0.00 1013.4
20260504035646 0 0.0 0.0 0.00 0.00 0.00 1013.5
20260504035143 0 0.0 0.0 0.00 0.00 0.00 1013.5
20260504034641 0 0.0 0.0 0.00 0.00 0.00 1013.3
20260504034138 0 0.0 0.0 0.00 0.00 0.00 1013.4
20260504033635 0 0.0 0.0 0.00 0.00 0.00 1013.3
20260504033133 0 0.0 0.0 0.00 0.00 0.00 1013.3
20260504032629 0 0.0 0.0 0.00 0.00 0.00 1013.3
20260504032126 0 0.0 0.0 0.00 0.00 0.00 1013.4
20260504031623 0 0.0 0.0 0.00 0.00 0.00 1013.2
20260504031119 0 0.0 0.0 0.00 0.00 0.00 1013.3
20260504030617 0 0.0 0.0 0.00 0.00 0.00 1013.4
20260504030114 0 0.0 0.0 0.00 0.00 0.00 1013.4
20260504025611 0 0.0 0.0 0.00 0.00 0.00 1013.2
20260504025108 0 0.0 0.0 0.00 0.00 0.00 1013.3
20260504024605 0 0.0 0.0 0.00 0.00 0.00 1013.4
20260504024101 0 0.0 0.0 0.00 0.00 0.00 1013.2
20260504023557 0 0.0 0.0 0.00 0.00 0.00 1013.3
20260504023053 0 0.0 0.0 0.00 0.00 0.00 1013.2
20260504022550 0 0.0 0.0 0.00 0.00 0.00 1013.3
20260504022046 0 0.0 0.0 0.00 0.00 0.00 1013.3
20260504021543 0 0.0 0.0 0.00 0.00 0.00 1013.2
20260504021040 0 0.0 0.0 0.00 0.00 0.00 1013.3
20260504020537 0 0.0 0.0 0.00 0.00 0.00 1013.2
20260504020034 0 0.0 0.0 0.00 0.00 0.00 1013.1
20260504015531 46 117 1.7 2.6 0.00 0.00 0.00 56 1012.9
20260504015027 46 117 1.7 2.6 0.00 0.00 0.00 56 1013.1
20260504014523 46 117 1.7 2.6 0.00 0.00 0.00 56 1013.1
20260504014020 46 117 1.7 2.6 0.00 0.00 0.00 56 1012.9
20260504013518 46 117 1.7 2.6 0.00 0.00 0.00 56 1013.0
20260504013015 46 117 1.7 2.6 0.00 0.00 0.00 56 1012.8
20260504012512 46 117 1.7 2.6 0.00 0.00 0.00 56 1012.8
20260504012009 46 117 1.7 2.6 0.00 0.00 0.00 56 1012.8
20260504011506 46 117 1.7 2.6 0.00 0.00 0.00 56 1012.7
20260504011001 46 117 1.7 2.6 0.00 0.00 0.00 56 1012.8
20260504010458 46 117 1.7 2.6 0.00 0.00 0.00 56 1012.7
20260504005953 46 117 1.7 2.6 0.00 0.00 0.00 56 1012.6
20260504005450 46 127 1.7 1.7 0.00 0.00 0.00 55 1012.4
20260504004948 46 127 1.7 1.7 0.00 0.00 0.00 55 1012.3
20260504004446 46 121 2.6 2.6 0.00 0.00 0.00 54 1012.1
20260504003943 46 117 1.7 2.6 0.00 0.00 0.00 53 1012.0
20260504003438 47 104 1.7 1.7 0.00 0.00 0.00 53 1012.1
20260504002935 47 106 1.7 1.7 0.00 0.00 0.00 52 1011.9
20260504002432 48 120 1.7 2.6 0.00 0.00 0.00 54 1011.8
20260504001930 49 93 2.6 2.6 0.00 0.00 0.00 45 1011.7
20260504001427 49 93 2.6 2.6 0.00 0.00 0.00 45 1011.9
20260504000924 49 93 2.6 2.6 0.00 0.00 0.00 45 1011.7
20260504000423 49 93 2.6 2.6 0.00 0.00 0.00 45 1011.7
20260503235918 50 111 1.7 1.7 0.00 0.00 0.00 43 1011.6
20260503235416 51 85 1.7 1.7 0.00 0.00 0.00 40 1011.6
20260503234913 52 53 0.0 0.0 0.00 0.00 0.00 37 1011.5
20260503234411 52 53 0.0 0.9 0.00 0.00 0.00 38 1011.4
20260503233908 52 289 2.6 2.6 0.00 0.00 0.00 37 1011.6
20260503233405 53 12 1.7 3.5 0.00 0.00 0.00 37 1011.4
20260503232901 53 237 1.7 3.5 0.00 0.00 0.00 37 1011.3
20260503232358 54 289 1.7 3.5 0.00 0.00 0.00 36 1011.2
20260503231856 54 316 1.7 5.2 0.00 0.00 0.00 37 1011.4
20260503231353 55 262 1.7 4.3 0.00 0.00 0.00 35 1011.4
20260503230849 55 312 3.5 5.2 0.00 0.00 0.00 34 1011.3
20260503230346 55 262 3.5 6.1 0.00 0.00 0.00 35 1011.3
20260503225844 55 10 1.7 5.2 0.00 0.00 0.00 35 1011.2
20260503225339 55 3 5.2 6.1 0.00 0.00 0.00 35 1011.2
20260503224836 55 235 2.6 7.8 0.00 0.00 0.00 34 1011.2
20260503224333 55 294 4.3 7.0 0.00 0.00 0.00 34 1011.2
20260503223832 55 337 1.7 5.2 0.00 0.00 0.00 34 1011.0
20260503223329 55 288 7.8 12.2 0.00 0.00 0.00 35 1011.2
20260503222824 55 296 2.6 6.1 0.00 0.00 0.00 36 1011.2
20260503222323 55 350 4.3 8.7 0.00 0.00 0.00 35 1010.9
20260503221820 55 334 4.3 11.3 0.00 0.00 0.00 35 1010.9
20260503221319 55 18 1.7 5.2 0.00 0.00 0.00 38 1010.8
20260503220814 55 295 5.2 7.8 0.00 0.00 0.00 35 1011.0
20260503220312 55 318 2.6 3.5 0.00 0.00 0.00 35 1010.9
20260503215808 55 288 2.6 5.2 0.00 0.00 0.00 35 1011.0
20260503215305 55 234 2.6 9.6 0.00 0.00 0.00 35 1010.9
20260503214803 55 279 3.5 7.8 0.00 0.00 0.00 36 1011.0
20260503214300 55 297 10.4 13.0 0.00 0.00 0.00 35 1011.2
20260503213758 55 294 3.5 9.6 0.00 0.00 0.00 36 1010.8
20260503213255 55 295 11.3 13.9 0.00 0.00 0.00 36 1011.0
20260503212752 54 279 8.7 13.9 0.00 0.00 0.00 36 1011.0
20260503212249 55 287 4.3 6.1 0.00 0.00 0.00 37 1011.2
20260503211747 54 259 5.2 7.8 0.00 0.00 0.00 36 1011.2
20260503211243 54 324 5.2 6.1 0.00 0.00 0.00 36 1010.9
20260503210738 53 301 7.0 10.4 0.00 0.00 0.00 36 1010.8
20260503210236 54 339 1.7 3.5 0.00 0.00 0.00 39 1010.9
20260503205731 54 318 10.4 13.9 0.00 0.00 0.00 36 1010.9
20260503205227 54 330 11.3 12.2 0.00 0.00 0.00 37 1010.8
20260503204724 54 338 11.3 15.6 0.00 0.00 0.00 37 1011.0
20260503204222 53 334 7.0 12.2 0.00 0.00 0.00 37 1010.8
20260503203719 0 280 26.1 39.1 0.00 0.00 0.00 1010.9
20260503203216 53 282 5.2 9.6 0.00 0.00 0.00 40 1010.6
20260503202714 55 101 1.7 6.1 0.00 0.00 0.00 37 1010.8
20260503202212 53 306 8.7 18.2 0.00 0.00 0.00 38 1010.8
20260503201709 52 259 6.1 16.5 0.00 0.00 0.00 38 1010.9
20260503201206 51 289 9.6 13.0 0.00 0.00 0.00 38 1010.8
20260503200703 51 298 9.6 13.9 0.00 0.00 0.00 38 1010.8
20260503200159 52 10 10.4 11.3 0.00 0.00 0.00 38 1010.8
20260503195656 53 273 6.1 17.4 0.00 0.00 0.00 39 1010.9
20260503195153 53 326 7.8 11.3 0.00 0.00 0.00 40 1010.8